| time (UTC) | temp C | wind direction | speed KPH | gust KPH | rain 1hr cm | rain 24hr cm | rain mn cm | humidity % | barometer mb |
| 20260906080006 | 18 | 65 | 1.6 | 4.8 | 0.00 | 1.65 | 0.00 | 89 | 1015.2 |
| 20260906074458 | 18 | 67 | 1.6 | 4.8 | 0.00 | 1.65 | 0.00 | 89 | 1015.2 |
| 20260906072959 | 18 | 67 | 1.6 | 3.2 | 0.00 | 1.65 | 0.00 | 88 | 1015.3 |
| 20260906071500 | 19 | 72 | 0.0 | 4.8 | 0.00 | 1.65 | 0.00 | 88 | 1015.3 |
| 20260906070005 | 19 | 78 | 1.6 | 6.4 | 0.00 | 1.65 | 0.00 | 89 | 1015.2 |
| 20260906064458 | 19 | 77 | 1.6 | 6.4 | 0.00 | 1.65 | 0.00 | 90 | 1015.2 |
| 20260906062959 | 20 | 73 | 1.6 | 6.4 | 0.00 | 1.65 | 0.00 | 90 | 1015.2 |
| 20260906061458 | 20 | 59 | 1.6 | 3.2 | 0.00 | 1.65 | 0.00 | 90 | 1015.2 |
| 20260906054458 | 20 | 64 | 3.2 | 6.4 | 0.00 | 1.65 | 0.00 | 91 | 1014.9 |
| 20260906052959 | 20 | 58 | 1.6 | 6.4 | 0.00 | 1.65 | 0.00 | 91 | 1014.8 |
| 20260906051457 | 21 | 69 | 1.6 | 6.4 | 0.00 | 1.65 | 0.00 | 91 | 1014.8 |
| 20260906050005 | 21 | 71 | 1.6 | 6.4 | 0.00 | 1.65 | 0.00 | 91 | 1014.7 |
| 20260906044500 | 21 | 50 | 1.6 | 6.4 | 0.00 | 1.65 | 0.00 | 91 | 1014.6 |
| 20260906043001 | 21 | 92 | 4.8 | 9.7 | 0.00 | 1.65 | 0.00 | 91 | 1014.6 |
| 20260906041500 | 22 | 89 | 4.8 | 11.3 | 0.00 | 1.65 | 0.00 | 91 | 1014.4 |
| 20260906040007 | 22 | 118 | 3.2 | 11.3 | 0.00 | 1.65 | 0.00 | 91 | 1014.5 |
| 20260906034500 | 22 | 62 | 3.2 | 9.7 | 0.00 | 1.65 | 1.65 | 91 | 1014.6 |
| 20260906031500 | 22 | 80 | 4.8 | 8.0 | 0.00 | 1.65 | 1.65 | 90 | 1014.5 |
| 20260906024459 | 22 | 77 | 6.4 | 17.7 | 0.00 | 1.65 | 1.65 | 90 | 1014.1 |
| 20260906023000 | 23 | 111 | 11.3 | 17.7 | 0.00 | 1.65 | 1.65 | 90 | 1013.9 |
| 20260906021459 | 23 | 92 | 8.0 | 22.5 | 0.00 | 1.65 | 1.65 | 91 | 1013.8 |
| 20260906020005 | 23 | 94 | 1.6 | 16.1 | 0.00 | 1.65 | 1.65 | 92 | 1013.6 |
| 20260906014459 | 23 | 54 | 3.2 | 9.7 | 0.00 | 1.65 | 1.65 | 92 | 1013.4 |
| 20260906013000 | 23 | 84 | 3.2 | 14.5 | 0.00 | 1.65 | 1.65 | 92 | 1013.2 |
| 20260906011459 | 23 | 104 | 4.8 | 17.7 | 0.00 | 1.65 | 1.65 | 92 | 1013.0 |
| 20260906010006 | 24 | 38 | 3.2 | 8.0 | 0.00 | 1.65 | 1.65 | 93 | 1012.6 |
| 20260906004500 | 24 | 62 | 1.6 | 3.2 | 0.00 | 1.65 | 1.65 | 94 | 1012.3 |
| 20260906003000 | 24 | 34 | 0.0 | 1.6 | 0.00 | 1.65 | 1.65 | 94 | 1012.1 |
| 20260906001459 | 24 | 34 | 0.0 | 0.0 | 0.00 | 1.65 | 1.65 | 93 | 1011.8 |
| 20260906000007 | 24 | 34 | 0.0 | 1.6 | 0.00 | 1.65 | 1.65 | 93 | 1012.0 |
| 20260905231459 | 24 | 34 | 0.0 | 0.0 | 0.00 | 1.65 | 1.65 | 92 | 1012.1 |
| 20260905230004 | 23 | 34 | 0.0 | 4.8 | 0.00 | 1.65 | 1.65 | 92 | 1011.9 |
| 20260905224500 | 23 | 34 | 0.0 | 0.0 | 1.30 | 1.65 | 1.65 | 90 | 1011.8 |
| 20260905223000 | 23 | 34 | 0.0 | 3.2 | 1.65 | 1.65 | 1.65 | 88 | 1011.7 |
| 20260905221459 | 23 | 38 | 1.6 | 6.4 | 1.65 | 1.65 | 1.65 | 86 | 1012.1 |
| 20260905220008 | 23 | 192 | 3.2 | 16.1 | 1.65 | 1.65 | 1.65 | 83 | 1011.7 |
| 20260905214500 | 28 | 44 | 11.3 | 20.9 | 0.30 | 0.30 | 0.30 | 72 | 1012.5 |
| 20260905213001 | 32 | 267 | 4.8 | 12.9 | 0.00 | 0.00 | 0.00 | 66 | 1011.4 |
| 20260905211459 | 32 | 312 | 3.2 | 12.9 | 0.00 | 0.00 | 0.00 | 68 | 1011.4 |
| 20260905210004 | 32 | 300 | 1.6 | 8.0 | 0.00 | 0.00 | 0.00 | 67 | 1011.2 |
| 20260905204500 | 31 | 268 | 4.8 | 12.9 | 0.00 | 0.00 | 0.00 | 69 | 1011.3 |
| 20260905203000 | 31 | 268 | 6.4 | 12.9 | 0.00 | 0.00 | 0.00 | 69 | 1011.4 |
| 20260905201459 | 32 | 318 | 4.8 | 14.5 | 0.00 | 0.00 | 0.00 | 67 | 1011.7 |
| 20260905200005 | 32 | 309 | 6.4 | 14.5 | 0.00 | 0.00 | 0.00 | 68 | 1011.9 |
| 20260905194459 | 31 | 294 | 6.4 | 19.3 | 0.00 | 0.00 | 0.00 | 67 | 1011.8 |
| 20260905193000 | 32 | 297 | 4.8 | 9.7 | 0.00 | 0.00 | 0.00 | 66 | 1012.2 |
| 20260905191459 | 32 | 296 | 4.8 | 12.9 | 0.00 | 0.00 | 0.00 | 65 | 1012.2 |
| 20260905190004 | 33 | 337 | 3.2 | 9.7 | 0.00 | 0.00 | 0.00 | 64 | 1012.4 |
| 20260905184459 | 33 | 198 | 3.2 | 14.5 | 0.00 | 0.00 | 0.00 | 63 | 1012.5 |
| 20260905183002 | 32 | 297 | 3.2 | 12.9 | 0.00 | 0.00 | 0.00 | 63 | 1012.7 |
| 20260905181459 | 33 | 273 | 4.8 | 16.1 | 0.00 | 0.00 | 0.00 | 62 | 1013.0 |
| 20260905180005 | 33 | 250 | 3.2 | 14.5 | 0.00 | 0.00 | 0.00 | 61 | 1013.0 |
| 20260905174459 | 32 | 205 | 1.6 | 14.5 | 0.00 | 0.00 | 0.00 | 63 | 1013.2 |
| 20260905173000 | 31 | 282 | 6.4 | 12.9 | 0.00 | 0.00 | 0.00 | 63 | 1013.4 |
| 20260905170004 | 31 | 226 | 3.2 | 17.7 | 0.00 | 0.00 | 0.00 | 64 | 1014.0 |
| 20260905164459 | 30 | 191 | 4.8 | 12.9 | 0.00 | 0.00 | 0.00 | 64 | 1014.1 |
| 20260905163001 | 30 | 156 | 4.8 | 11.3 | 0.00 | 0.00 | 0.00 | 67 | 1014.0 |
| 20260905161459 | 29 | 192 | 3.2 | 16.1 | 0.00 | 0.00 | 0.00 | 68 | 1014.0 |
| 20260905154459 | 28 | 242 | 8.0 | 16.1 | 0.00 | 0.00 | 0.00 | 68 | 1014.1 |
| 20260905153001 | 28 | 166 | 9.7 | 20.9 | 0.00 | 0.00 | 0.00 | 69 | 1014.1 |
| 20260905151459 | 27 | 194 | 8.0 | 14.5 | 0.00 | 0.00 | 0.00 | 71 | 1014.0 |
| 20260905150005 | 27 | 217 | 8.0 | 17.7 | 0.00 | 0.00 | 0.00 | 71 | 1014.1 |
| 20260905144459 | 26 | 188 | 4.8 | 12.9 | 0.00 | 0.00 | 0.00 | 74 | 1014.0 |
| 20260905143000 | 25 | 171 | 6.4 | 16.1 | 0.00 | 0.00 | 0.00 | 75 | 1013.9 |
| 20260905141459 | 25 | 175 | 1.6 | 19.3 | 0.00 | 0.00 | 0.00 | 77 | 1013.9 |
| 20260905140007 | 25 | 194 | 6.4 | 19.3 | 0.00 | 0.00 | 0.00 | 78 | 1014.0 |
| 20260905132959 | 23 | 152 | 8.0 | 20.9 | 0.00 | 0.00 | 0.00 | 81 | 1014.1 |
| 20260905131458 | 22 | 194 | 6.4 | 12.9 | 0.00 | 0.00 | 0.00 | 82 | 1014.3 |
| 20260905124458 | 22 | 148 | 6.4 | 11.3 | 0.00 | 0.00 | 0.00 | 85 | 1014.3 |
| 20260905123000 | 21 | 163 | 4.8 | 11.3 | 0.00 | 0.00 | 0.00 | 86 | 1014.3 |
| 20260905121458 | 21 | 124 | 3.2 | 12.9 | 0.00 | 0.00 | 0.00 | 87 | 1014.1 |
| 20260905120002 | 21 | 112 | 1.6 | 8.0 | 0.00 | 0.00 | 0.00 | 87 | 1014.0 |
| 20260905114458 | 21 | 167 | 3.2 | 9.7 | 0.00 | 0.00 | 0.00 | 86 | 1014.0 |
| 20260905113000 | 21 | 186 | 1.6 | 12.9 | 0.00 | 0.00 | 0.00 | 86 | 1014.0 |
| 20260905110004 | 21 | 84 | 4.8 | 14.5 | 0.00 | 0.00 | 0.00 | 86 | 1013.9 |
| 20260905104458 | 21 | 159 | 3.2 | 12.9 | 0.00 | 0.00 | 0.00 | 85 | 1014.0 |
| 20260905102959 | 22 | 81 | 6.4 | 17.7 | 0.00 | 0.00 | 0.00 | 84 | 1014.0 |
| 20260905094458 | 23 | 193 | 0.0 | 1.6 | 0.00 | 0.00 | 0.00 | 89 | 1013.0 |
| 20260905092959 | 24 | 193 | 0.0 | 0.0 | 0.00 | 0.00 | 0.00 | 89 | 1013.1 |
| 20260905091459 | 24 | 193 | 0.0 | 3.2 | 0.00 | 0.00 | 0.00 | 89 | 1013.0 |
| 20260905090004 | 24 | 193 | 0.0 | 0.0 | 0.00 | 0.00 | 0.00 | 88 | 1012.9 |
| 20260905084459 | 24 | 193 | 1.6 | 3.2 | 0.00 | 0.00 | 0.00 | 89 | 1012.8 |
| 20260905081458 | 24 | 193 | 0.0 | 0.0 | 0.00 | 0.00 | 0.00 | 88 | 1012.8 |